Regional Weather Roundup
Issued by NWS Goodland, KS

Home | Current Version | Previous Version | Graphics & Text | Print | Product List | Glossary On
Versions: 1 2 3 4 5 6 7 8 9 10 11 12 13 14 15 16 17 18 19 20 21 22 23 24 25 26 27 28 29 30 31 32 33 34 35 36 37 38 39 40 41 42 43 44 45 46 47 48 49 50
000
ASUS43 KGLD 272308
RWRGLD

GOODLAND FORECAST AREA HOURLY WEATHER ROUNDUP
NATIONAL WEATHER SERVICE GOODLAND KS
400 PM MST TUE JAN 27 2015

...OFFICIAL OBSERVATIONS...

CITY           SKY/WX    TMP DP  RH WIND       PRES   REMARKS
GOODLAND KS    PTCLDY    67  25  20 SW7       29.99F
HILL CITY KS   CLEAR     80  31  16 E6        29.93S
IMPERIAL NEB   CLEAR     72  25  17 CALM      29.96F
MCCOOK NEB     CLEAR     73  30  20 SW5       29.94F
AKRON CO       PTSUNNY   64  31  28 E9        30.01F
BURLINGTON CO  PTSUNNY   69  30  23 SW10      30.02F
LIMON CO       MOSUNNY   67  17  14 S9        30.04F
$$

...UNOFFICIAL OBSERVATIONS...

CITY           SKY/WX    TMP DP  RH WIND       PRES   REMARKS
COLBY KS       CLEAR     70  34  26 SW9       29.98S
GOVE KS          N/A     78  32  18 MISG        N/A
NORTON KS      CLEAR     70  19  14 W5        29.93S
SHARON SPRINGS   N/A     71  28  20 SW8         N/A
KIT CARSON CO    N/A     71  31  22 MISG        N/A
YUMA CO          N/A     72  28  19 E6          N/A
$$


USA.gov is the U.S. government's official web portal to all federal, state and local government web resources and services.